Hourly Data Report for October 24, 2017

All times are specified in Local Standard Time (LST). Add 1 hour to adjust for Daylight Saving Time where and when it is observed.

IQALUIT CLIMATE
NUNAVUT

63°44'50.000" N
68°32'40.000" W
33.50 m
2402592
71321
XFB

Download Data

Hourly Data (October 2017)
Hourly Data Report for October 24, 2017
Temp Definition
°C
Dew Point Temp Definition
°C
Rel Hum Definition
%
Wind Dir Definition
10's deg

Wind Spd Definition
km/h
Visibility Definition
km
Stn Press Definition
kPa
Hmdx Definition


Wind Chill Definition


Weather Definition


TIME
00:00 3.0 0.1 81 17 21   99.30     LegendNANA
01:00 3.3 -0.6 76 19 26   99.29     LegendNANA
02:00 3.1 -2.0 69 20 36   99.27     LegendNANA
03:00 2.4 -1.4 76 19 30   99.21     LegendNANA
04:00 2.2 -1.9 74 14 28   99.19     LegendNANA
05:00 2.3 -2.2 72 18 17   99.21     LegendNANA
06:00 2.2 -2.1 73 18 23   99.19     LegendNANA
07:00 2.4 -2.1 73 19 20   99.19     LegendNANA
08:00 2.6 -2.2 70 19 21   99.20     LegendNANA
09:00 2.3 -1.9 74 17 17   99.27     LegendNANA
10:00 2.4 -2.0 73 18 17   99.31     LegendNANA
11:00 1.9 -2.4 73 22 17   99.39     LegendNANA
12:00 1.9 -2.0 75 23 25   99.45     LegendNANA
13:00 1.7 -2.3 75 24 35   99.56     LegendNANA
14:00 1.6 -2.6 74 27 27   99.71     LegendNANA
15:00 0.8 -3.5 73 27 34   99.88     LegendNANA
16:00 0.1 -4.0 73 27 23   100.01     LegendNANA
17:00 -0.9 -5.1 74 28 22   100.11   -7 LegendNANA
18:00 -1.0 -5.4 72 27 43   100.14   -9 LegendNANA
19:00 -1.4 -5.0 77 28 17   100.29   -7 LegendNANA
20:00 -1.2 -6.0 70 28 29   100.41   -8 LegendNANA
21:00 -1.5 -5.8 72 25 23   100.45   -8 LegendNANA
22:00 -1.9 -5.2 78 35 6   100.45   -4 LegendNANA
23:00 -1.5 -6.0 72 25 16   100.46   -6 LegendNANA

Notes on Data Quality.

Legend

  • E = Estimated
  • M = Missing
  • NA = Not Available
  • ‡ = Partner data that is not subject to review by the National Climate Archives
Date modified: